Hourly Data Report for November 13, 2021

MIRAMICHI RCS
NEW BRUNSWICK
Current Station Operator: ECCC - MSC

47°00'34.000" N
65°27'54.000" W
33.00 m
8100989
71744
ACQ

Download Data

Hourly Data (November 2021)
Hourly Data Report for November 13, 2021
TIME
LST
Temp Definition
°C
Dew Point Definition
°C
Rel Hum Definition
%
Precip. Amount Definition
mm

Wind Dir Definition
10's deg

Wind Spd Definition
km/h
Visibility Definition
km
Stn Press Definition
kPa
Hmdx Definition


Wind Chill Definition


Weather Definition


00:00 3.9 2.7 92 0.2 14 18   101.02     LegendNANA
01:00 4.1 3.1 93 0.3 13 11   100.84     LegendNANA
02:00 4.7 3.8 94 0.3 15 8   100.70     LegendNANA
03:00 5.0 4.4 96 0.3 16 7   100.56     LegendNANA
04:00 5.4 4.8 96 0.7 19 2   100.44     LegendNANA
05:00 5.6 5.2 97 1.4 31 12   100.42     LegendNANA
06:00 4.7 4.3 97 1.0 1 3   100.36     LegendNANA
07:00 4.6 4.1 97 0.0 28 2   100.39     LegendNANA
08:00 4.0 3.6 97 0.0 25 9   100.50     LegendNANA
09:00 4.9 3.9 93 0.0 25 9   100.51     LegendNANA
10:00 6.4 4.5 88 0.0 23 11   100.54     LegendNANA
11:00 7.9 4.9 82 0.0 25 10   100.51     LegendNANA
12:00 9.1 5.5 78 0.0 27 10   100.48     LegendNANA
13:00 10.8 5.4 69 0.0 25 6   100.36     LegendNANA
14:00 11.1 4.3 63 0.0 27 9   100.28     LegendNANA
15:00 11.2 4.7 64 0.0 4 5   100.21     LegendNANA
16:00 10.5 3.9 63 0.0 6 6   100.19     LegendNANA
17:00 7.2 3.7 79 0.0 8 13   100.17     LegendNANA
18:00 5.8 3.4 85 0.0 5 8   100.15     LegendNANA
19:00 3.7 2.4 91 0.0 8 10   100.09     LegendNANA
20:00 3.1 2.3 94 0.0 7 4   100.06     LegendNANA
21:00 1.5 0.5 93 0.0 36 1   100.03     LegendNANA
22:00 2.1 1.4 96 0.0 5 7   99.96     LegendNANA
23:00 2.3 1.5 95 0.0 4 10   99.76     LegendNANA

Notes on Data Quality.

Legend

  • E = Estimated
  • M = Missing
  • NA = Not Available*
  • [empty] = Indicates an unobserved value
Date modified: